This is the latest recevied weather packets stored in our database for station/object KC3ULW-13. If no packets are shown the sender has not sent any weather packets the latest 10 day(s).
| Time | Temp. | Humidity | Pressure | Rain* | Wind** | Luminosity | Snow |
|---|---|---|---|---|---|---|---|
| 1777988099 | 21.11° C | 54% | 1011.7 hPa | 0 mm | - | 430 W/m² | - |
| 1777987794 | 20.56° C | 56% | 1011.4 hPa | 0 mm | - | 241 W/m² | - |
| 1777987491 | 20.56° C | 56% | 1011.3 hPa | 0 mm | - | 405 W/m² | - |
| 1777987189 | 20.56° C | 56% | 1011.4 hPa | 0 mm | - | 312 W/m² | - |
| 1777986885 | 20.56° C | 57% | 1011.5 hPa | 0 mm | - | 172 W/m² | - |
| 1777986281 | 20° C | 58% | 1011.3 hPa | 0 mm | - | 224 W/m² | - |
| 1777985676 | 20° C | 58% | 1011.4 hPa | 0 mm | - | 275 W/m² | - |
| 1777984765 | 19.44° C | 59% | 1011.2 hPa | 0 mm | - | 142 W/m² | - |
| 1777984462 | 19.44° C | 58% | 1011.4 hPa | 0 mm | - | 147 W/m² | - |
| 1777984157 | 19.44° C | 59% | 1011.5 hPa | 0 mm | - | 111 W/m² | - |
| 1777983855 | 18.89° C | 60% | 1011.4 hPa | 0 mm | - | 79 W/m² | - |
| 1777983552 | 18.89° C | 61% | 1011.2 hPa | 0 mm | - | 79 W/m² | - |
| 1777983249 | 18.89° C | 60% | 1011.4 hPa | 0 mm | - | 69 W/m² | - |
| 1777982641 | 18.89° C | 61% | 1011.5 hPa | 0 mm | - | 67 W/m² | - |
| 1777982340 | 18.89° C | 60% | 1011.3 hPa | 0 mm | - | 52 W/m² | - |
| 1777981128 | 18.89° C | 61% | 1011.2 hPa | 0 mm | - | 95 W/m² | - |
| 1777980824 | 18.33° C | 62% | 1011.3 hPa | 0 mm | - | 98 W/m² | - |
| 1777980520 | 18.33° C | 62% | 1011.2 hPa | 0 mm | - | 81 W/m² | - |
| 1777980218 | 17.78° C | 63% | 1011.3 hPa | 0 mm | - | 59 W/m² | - |
| 1777979913 | 17.78° C | 63% | 1011.1 hPa | 0 mm | - | 42 W/m² | - |
| 1777979609 | 17.78° C | 64% | 1011.1 hPa | 0 mm | - | 38 W/m² | - |
| 1777979003 | 17.78° C | 64% | 1010.9 hPa | 0 mm | - | 27 W/m² | - |
| 1777978699 | 17.22° C | 65% | 1011.1 hPa | 0 mm | - | 22 W/m² | - |
| 1777977485 | 17.22° C | 66% | 1010.5 hPa | 0 mm | - | 9 W/m² | - |
| 1777977183 | 17.22° C | 65% | 1010.8 hPa | 0 mm | - | 9 W/m² | - |
* Rain latest hour (hover to see other rain measurements)
** Current wind speed in m/s (hover to see current wind gust speed)